Tracking 20475 objects as of 27-Feb-2020
HD Live streaming from Space Station
objects crossing your sky now

OPS 0757 (TACSAT)

Track OPS 0757 (TACSAT) now!
OPS 0757 (TACSAT) is classified as:


NORAD ID: 3691
Int'l Code: 1969-013A
Perigee: 35,690.8 km
Apogee: 35,825.0 km
Inclination: 2.9 °
Period: 1,434.3 minutes
Semi major axis: 42128 km
RCS: 1 m2 (large)
Launch date: February 9, 1969
Source: United States (US)
Launch site: AIR FORCE EASTERN TEST RANGE (AFETR)
aabbcc
Your satellite tracking list
Your tracking list is empty




NASA's NSSDC Master Catalog

Two Line Element Set (TLE):
1  3691U 69013A   20057.45596029 +.00000035 +00000-0 +00000-0 0  9990
2  3691 002.9258 293.9511 0015928 287.7470 273.8009 01.00399815090988
Source of the keplerian elements: AFSPC